Index of /20260430/WXO-DD/model_gdps/15km/00/036
Name Last modified Size Description
Parent Directory -
20260430T00Z_MSC_GDPS_AbsoluteVorticity_IsbL-0200_LatLon0.15_PT036H.grib2 2026-04-30 04:05 1.5M
20260430T00Z_MSC_GDPS_AbsoluteVorticity_IsbL-0250_LatLon0.15_PT036H.grib2 2026-04-30 04:05 1.3M
20260430T00Z_MSC_GDPS_AbsoluteVorticity_IsbL-0500_LatLon0.15_PT036H.grib2 2026-04-30 04:05 1.4M
20260430T00Z_MSC_GDPS_AbsoluteVorticity_IsbL-0700_LatLon0.15_PT036H.grib2 2026-04-30 04:05 1.6M
20260430T00Z_MSC_GDPS_AbsoluteVorticity_IsbL-0850_LatLon0.15_PT036H.grib2 2026-04-30 04:05 1.6M
20260430T00Z_MSC_GDPS_AirTemp-Max_AGL-2m_LatLon0.15_PT036H.grib2 2026-04-30 04:05 741K
20260430T00Z_MSC_GDPS_AirTemp-Min_AGL-2m_LatLon0.15_PT036H.grib2 2026-04-30 04:05 790K
20260430T00Z_MSC_GDPS_AirTemp_AGL-120m_LatLon0.15_PT036H.grib2 2026-04-30 04:05 793K
20260430T00Z_MSC_GDPS_AirTemp_AGL-2m_LatLon0.15_PT036H.grib2 2026-04-30 04:05 1.0M
20260430T00Z_MSC_GDPS_AirTemp_AGL-40m_LatLon0.15_PT036H.grib2 2026-04-30 04:05 813K
20260430T00Z_MSC_GDPS_AirTemp_AGL-80m_LatLon0.15_PT036H.grib2 2026-04-30 04:05 801K
20260430T00Z_MSC_GDPS_AirTemp_IsbL-0001_LatLon0.15_PT036H.grib2 2026-04-30 04:05 656K
20260430T00Z_MSC_GDPS_AirTemp_IsbL-0005_LatLon0.15_PT036H.grib2 2026-04-30 04:05 685K
20260430T00Z_MSC_GDPS_AirTemp_IsbL-0010_LatLon0.15_PT036H.grib2 2026-04-30 04:05 761K
20260430T00Z_MSC_GDPS_AirTemp_IsbL-0020_LatLon0.15_PT036H.grib2 2026-04-30 04:05 788K
20260430T00Z_MSC_GDPS_AirTemp_IsbL-0030_LatLon0.15_PT036H.grib2 2026-04-30 04:05 752K
20260430T00Z_MSC_GDPS_AirTemp_IsbL-0050_LatLon0.15_PT036H.grib2 2026-04-30 04:05 805K
20260430T00Z_MSC_GDPS_AirTemp_IsbL-0100_LatLon0.15_PT036H.grib2 2026-04-30 04:05 958K
20260430T00Z_MSC_GDPS_AirTemp_IsbL-0150_LatLon0.15_PT036H.grib2 2026-04-30 04:05 1.0M
20260430T00Z_MSC_GDPS_AirTemp_IsbL-0175_LatLon0.15_PT036H.grib2 2026-04-30 04:05 959K
20260430T00Z_MSC_GDPS_AirTemp_IsbL-0200_LatLon0.15_PT036H.grib2 2026-04-30 04:05 1.0M
20260430T00Z_MSC_GDPS_AirTemp_IsbL-0225_LatLon0.15_PT036H.grib2 2026-04-30 04:05 1.0M
20260430T00Z_MSC_GDPS_AirTemp_IsbL-0250_LatLon0.15_PT036H.grib2 2026-04-30 04:05 1.0M
20260430T00Z_MSC_GDPS_AirTemp_IsbL-0275_LatLon0.15_PT036H.grib2 2026-04-30 04:05 1.0M
20260430T00Z_MSC_GDPS_AirTemp_IsbL-0300_LatLon0.15_PT036H.grib2 2026-04-30 04:05 949K
20260430T00Z_MSC_GDPS_AirTemp_IsbL-0350_LatLon0.15_PT036H.grib2 2026-04-30 04:05 931K
20260430T00Z_MSC_GDPS_AirTemp_IsbL-0400_LatLon0.15_PT036H.grib2 2026-04-30 04:05 938K
20260430T00Z_MSC_GDPS_AirTemp_IsbL-0450_LatLon0.15_PT036H.grib2 2026-04-30 04:05 958K
20260430T00Z_MSC_GDPS_AirTemp_IsbL-0500_LatLon0.15_PT036H.grib2 2026-04-30 04:05 760K
20260430T00Z_MSC_GDPS_AirTemp_IsbL-0550_LatLon0.15_PT036H.grib2 2026-04-30 04:05 796K
20260430T00Z_MSC_GDPS_AirTemp_IsbL-0600_LatLon0.15_PT036H.grib2 2026-04-30 04:05 893K
20260430T00Z_MSC_GDPS_AirTemp_IsbL-0650_LatLon0.15_PT036H.grib2 2026-04-30 04:05 924K
20260430T00Z_MSC_GDPS_AirTemp_IsbL-0700_LatLon0.15_PT036H.grib2 2026-04-30 04:05 959K
20260430T00Z_MSC_GDPS_AirTemp_IsbL-0750_LatLon0.15_PT036H.grib2 2026-04-30 04:05 1.0M
20260430T00Z_MSC_GDPS_AirTemp_IsbL-0800_LatLon0.15_PT036H.grib2 2026-04-30 04:05 1.1M
20260430T00Z_MSC_GDPS_AirTemp_IsbL-0850_LatLon0.15_PT036H.grib2 2026-04-30 04:05 1.1M
20260430T00Z_MSC_GDPS_AirTemp_IsbL-0875_LatLon0.15_PT036H.grib2 2026-04-30 04:05 1.2M
20260430T00Z_MSC_GDPS_AirTemp_IsbL-0900_LatLon0.15_PT036H.grib2 2026-04-30 04:05 1.1M
20260430T00Z_MSC_GDPS_AirTemp_IsbL-0925_LatLon0.15_PT036H.grib2 2026-04-30 04:05 1.1M
20260430T00Z_MSC_GDPS_AirTemp_IsbL-0950_LatLon0.15_PT036H.grib2 2026-04-30 04:05 1.1M
20260430T00Z_MSC_GDPS_AirTemp_IsbL-0970_LatLon0.15_PT036H.grib2 2026-04-30 04:05 1.2M
20260430T00Z_MSC_GDPS_AirTemp_IsbL-0985_LatLon0.15_PT036H.grib2 2026-04-30 04:05 1.1M
20260430T00Z_MSC_GDPS_AirTemp_IsbL-1000_LatLon0.15_PT036H.grib2 2026-04-30 04:05 1.1M
20260430T00Z_MSC_GDPS_AirTemp_IsbL-1015_LatLon0.15_PT036H.grib2 2026-04-30 04:05 1.1M
20260430T00Z_MSC_GDPS_Albedo_Sfc_LatLon0.15_PT036H.grib2 2026-04-30 04:05 239K
20260430T00Z_MSC_GDPS_CAPE_Sfc_LatLon0.15_PT036H.grib2 2026-04-30 04:05 4.1M
20260430T00Z_MSC_GDPS_CIN_Sfc_LatLon0.15_PT036H.grib2 2026-04-30 04:05 3.0M
20260430T00Z_MSC_GDPS_CloudWater_EAtm_LatLon0.15_PT036H.grib2 2026-04-30 04:05 534K
20260430T00Z_MSC_GDPS_ConvectivePrecip-Accum_Sfc_LatLon0.15_PT036H.grib2 2026-04-30 04:05 2.7M
20260430T00Z_MSC_GDPS_DewPointDepression_AGL-2m_LatLon0.15_PT036H.grib2 2026-04-30 04:05 764K
20260430T00Z_MSC_GDPS_DewPointDepression_IsbL-0010_LatLon0.15_PT036H.grib2 2026-04-30 04:05 60K
20260430T00Z_MSC_GDPS_DewPointDepression_IsbL-0020_LatLon0.15_PT036H.grib2 2026-04-30 04:05 65K
20260430T00Z_MSC_GDPS_DewPointDepression_IsbL-0030_LatLon0.15_PT036H.grib2 2026-04-30 04:05 71K
20260430T00Z_MSC_GDPS_DewPointDepression_IsbL-0050_LatLon0.15_PT036H.grib2 2026-04-30 04:05 372K
20260430T00Z_MSC_GDPS_DewPointDepression_IsbL-0100_LatLon0.15_PT036H.grib2 2026-04-30 04:05 413K
20260430T00Z_MSC_GDPS_DewPointDepression_IsbL-0150_LatLon0.15_PT036H.grib2 2026-04-30 04:05 466K
20260430T00Z_MSC_GDPS_DewPointDepression_IsbL-0175_LatLon0.15_PT036H.grib2 2026-04-30 04:05 561K
20260430T00Z_MSC_GDPS_DewPointDepression_IsbL-0200_LatLon0.15_PT036H.grib2 2026-04-30 04:05 684K
20260430T00Z_MSC_GDPS_DewPointDepression_IsbL-0225_LatLon0.15_PT036H.grib2 2026-04-30 04:05 788K
20260430T00Z_MSC_GDPS_DewPointDepression_IsbL-0250_LatLon0.15_PT036H.grib2 2026-04-30 04:05 874K
20260430T00Z_MSC_GDPS_DewPointDepression_IsbL-0275_LatLon0.15_PT036H.grib2 2026-04-30 04:05 886K
20260430T00Z_MSC_GDPS_DewPointDepression_IsbL-0300_LatLon0.15_PT036H.grib2 2026-04-30 04:05 928K
20260430T00Z_MSC_GDPS_DewPointDepression_IsbL-0350_LatLon0.15_PT036H.grib2 2026-04-30 04:05 951K
20260430T00Z_MSC_GDPS_DewPointDepression_IsbL-0400_LatLon0.15_PT036H.grib2 2026-04-30 04:05 1.0M
20260430T00Z_MSC_GDPS_DewPointDepression_IsbL-0450_LatLon0.15_PT036H.grib2 2026-04-30 04:05 1.0M
20260430T00Z_MSC_GDPS_DewPointDepression_IsbL-0500_LatLon0.15_PT036H.grib2 2026-04-30 04:05 1.0M
20260430T00Z_MSC_GDPS_DewPointDepression_IsbL-0550_LatLon0.15_PT036H.grib2 2026-04-30 04:05 1.0M
20260430T00Z_MSC_GDPS_DewPointDepression_IsbL-0600_LatLon0.15_PT036H.grib2 2026-04-30 04:05 1.0M
20260430T00Z_MSC_GDPS_DewPointDepression_IsbL-0650_LatLon0.15_PT036H.grib2 2026-04-30 04:05 1.1M
20260430T00Z_MSC_GDPS_DewPointDepression_IsbL-0700_LatLon0.15_PT036H.grib2 2026-04-30 04:05 1.1M
20260430T00Z_MSC_GDPS_DewPointDepression_IsbL-0750_LatLon0.15_PT036H.grib2 2026-04-30 04:05 1.1M
20260430T00Z_MSC_GDPS_DewPointDepression_IsbL-0800_LatLon0.15_PT036H.grib2 2026-04-30 04:05 1.2M
20260430T00Z_MSC_GDPS_DewPointDepression_IsbL-0850_LatLon0.15_PT036H.grib2 2026-04-30 04:05 1.2M
20260430T00Z_MSC_GDPS_DewPointDepression_IsbL-0875_LatLon0.15_PT036H.grib2 2026-04-30 04:05 1.1M
20260430T00Z_MSC_GDPS_DewPointDepression_IsbL-0900_LatLon0.15_PT036H.grib2 2026-04-30 04:05 1.1M
20260430T00Z_MSC_GDPS_DewPointDepression_IsbL-0925_LatLon0.15_PT036H.grib2 2026-04-30 04:05 1.0M
20260430T00Z_MSC_GDPS_DewPointDepression_IsbL-0950_LatLon0.15_PT036H.grib2 2026-04-30 04:05 1.0M
20260430T00Z_MSC_GDPS_DewPointDepression_IsbL-0970_LatLon0.15_PT036H.grib2 2026-04-30 04:05 1.0M
20260430T00Z_MSC_GDPS_DewPointDepression_IsbL-0985_LatLon0.15_PT036H.grib2 2026-04-30 04:05 1.0M
20260430T00Z_MSC_GDPS_DewPointDepression_IsbL-1000_LatLon0.15_PT036H.grib2 2026-04-30 04:05 1.0M
20260430T00Z_MSC_GDPS_DewPointDepression_IsbL-1015_LatLon0.15_PT036H.grib2 2026-04-30 04:05 916K
20260430T00Z_MSC_GDPS_DewPoint_AGL-2m_LatLon0.15_PT036H.grib2 2026-04-30 04:05 611K
20260430T00Z_MSC_GDPS_DownwardLongwaveRadiationFlux-Accum_Sfc_LatLon0.15_PT036H.grib2 2026-04-30 04:05 728K
20260430T00Z_MSC_GDPS_DownwardShortwaveRadiationFlux-Accum_NTAtm_LatLon0.15_PT036H.grib2 2026-04-30 04:05 303K
20260430T00Z_MSC_GDPS_DownwardShortwaveRadiationFlux-Accum_Sfc_LatLon0.15_PT036H.grib2 2026-04-30 04:05 949K
20260430T00Z_MSC_GDPS_FreezingRain-Accum12h_Sfc_LatLon0.15_PT036H.grib2 2026-04-30 04:05 114K
20260430T00Z_MSC_GDPS_FreezingRain-Accum1h_Sfc_LatLon0.15_PT036H.grib2 2026-04-30 04:05 48K
20260430T00Z_MSC_GDPS_FreezingRain-Accum24h_Sfc_LatLon0.15_PT036H.grib2 2026-04-30 04:05 170K
20260430T00Z_MSC_GDPS_FreezingRain-Accum3h_Sfc_LatLon0.15_PT036H.grib2 2026-04-30 04:05 57K
20260430T00Z_MSC_GDPS_FreezingRain-Accum6h_Sfc_LatLon0.15_PT036H.grib2 2026-04-30 04:05 74K
20260430T00Z_MSC_GDPS_FreezingRain-Accum_Sfc_LatLon0.15_PT036H.grib2 2026-04-30 04:05 225K
20260430T00Z_MSC_GDPS_GeopotentialHeight_IsbL-0001_LatLon0.15_PT036H.grib2 2026-04-30 04:05 381K
20260430T00Z_MSC_GDPS_GeopotentialHeight_IsbL-0005_LatLon0.15_PT036H.grib2 2026-04-30 04:05 485K
20260430T00Z_MSC_GDPS_GeopotentialHeight_IsbL-0010_LatLon0.15_PT036H.grib2 2026-04-30 04:05 476K
20260430T00Z_MSC_GDPS_GeopotentialHeight_IsbL-0020_LatLon0.15_PT036H.grib2 2026-04-30 04:05 416K
20260430T00Z_MSC_GDPS_GeopotentialHeight_IsbL-0030_LatLon0.15_PT036H.grib2 2026-04-30 04:05 575K
20260430T00Z_MSC_GDPS_GeopotentialHeight_IsbL-0050_LatLon0.15_PT036H.grib2 2026-04-30 04:05 577K
20260430T00Z_MSC_GDPS_GeopotentialHeight_IsbL-0100_LatLon0.15_PT036H.grib2 2026-04-30 04:05 610K
20260430T00Z_MSC_GDPS_GeopotentialHeight_IsbL-0150_LatLon0.15_PT036H.grib2 2026-04-30 04:05 630K
20260430T00Z_MSC_GDPS_GeopotentialHeight_IsbL-0175_LatLon0.15_PT036H.grib2 2026-04-30 04:05 634K
20260430T00Z_MSC_GDPS_GeopotentialHeight_IsbL-0200_LatLon0.15_PT036H.grib2 2026-04-30 04:05 639K
20260430T00Z_MSC_GDPS_GeopotentialHeight_IsbL-0225_LatLon0.15_PT036H.grib2 2026-04-30 04:05 642K
20260430T00Z_MSC_GDPS_GeopotentialHeight_IsbL-0250_LatLon0.15_PT036H.grib2 2026-04-30 04:05 646K
20260430T00Z_MSC_GDPS_GeopotentialHeight_IsbL-0275_LatLon0.15_PT036H.grib2 2026-04-30 04:05 644K
20260430T00Z_MSC_GDPS_GeopotentialHeight_IsbL-0300_LatLon0.15_PT036H.grib2 2026-04-30 04:05 642K
20260430T00Z_MSC_GDPS_GeopotentialHeight_IsbL-0350_LatLon0.15_PT036H.grib2 2026-04-30 04:05 630K
20260430T00Z_MSC_GDPS_GeopotentialHeight_IsbL-0400_LatLon0.15_PT036H.grib2 2026-04-30 04:05 623K
20260430T00Z_MSC_GDPS_GeopotentialHeight_IsbL-0450_LatLon0.15_PT036H.grib2 2026-04-30 04:05 614K
20260430T00Z_MSC_GDPS_GeopotentialHeight_IsbL-0500_LatLon0.15_PT036H.grib2 2026-04-30 04:05 534K
20260430T00Z_MSC_GDPS_GeopotentialHeight_IsbL-0550_LatLon0.15_PT036H.grib2 2026-04-30 04:05 530K
20260430T00Z_MSC_GDPS_GeopotentialHeight_IsbL-0600_LatLon0.15_PT036H.grib2 2026-04-30 04:05 524K
20260430T00Z_MSC_GDPS_GeopotentialHeight_IsbL-0650_LatLon0.15_PT036H.grib2 2026-04-30 04:05 693K
20260430T00Z_MSC_GDPS_GeopotentialHeight_IsbL-0700_LatLon0.15_PT036H.grib2 2026-04-30 04:05 694K
20260430T00Z_MSC_GDPS_GeopotentialHeight_IsbL-0750_LatLon0.15_PT036H.grib2 2026-04-30 04:05 699K
20260430T00Z_MSC_GDPS_GeopotentialHeight_IsbL-0800_LatLon0.15_PT036H.grib2 2026-04-30 04:05 703K
20260430T00Z_MSC_GDPS_GeopotentialHeight_IsbL-0850_LatLon0.15_PT036H.grib2 2026-04-30 04:05 718K
20260430T00Z_MSC_GDPS_GeopotentialHeight_IsbL-0875_LatLon0.15_PT036H.grib2 2026-04-30 04:05 720K
20260430T00Z_MSC_GDPS_GeopotentialHeight_IsbL-0900_LatLon0.15_PT036H.grib2 2026-04-30 04:05 727K
20260430T00Z_MSC_GDPS_GeopotentialHeight_IsbL-0925_LatLon0.15_PT036H.grib2 2026-04-30 04:05 734K
20260430T00Z_MSC_GDPS_GeopotentialHeight_IsbL-0950_LatLon0.15_PT036H.grib2 2026-04-30 04:05 740K
20260430T00Z_MSC_GDPS_GeopotentialHeight_IsbL-0970_LatLon0.15_PT036H.grib2 2026-04-30 04:05 751K
20260430T00Z_MSC_GDPS_GeopotentialHeight_IsbL-0985_LatLon0.15_PT036H.grib2 2026-04-30 04:05 767K
20260430T00Z_MSC_GDPS_GeopotentialHeight_IsbL-1000_LatLon0.15_PT036H.grib2 2026-04-30 04:05 789K
20260430T00Z_MSC_GDPS_GeopotentialHeight_IsbL-1015_LatLon0.15_PT036H.grib2 2026-04-30 04:05 812K
20260430T00Z_MSC_GDPS_Humidex_Sfc_LatLon0.15_PT036H.grib2 2026-04-30 04:05 5.3M
20260430T00Z_MSC_GDPS_IcePellets-Accum12h_Sfc_LatLon0.15_PT036H.grib2 2026-04-30 04:05 28K
20260430T00Z_MSC_GDPS_IcePellets-Accum1h_Sfc_LatLon0.15_PT036H.grib2 2026-04-30 04:05 18K
20260430T00Z_MSC_GDPS_IcePellets-Accum24h_Sfc_LatLon0.15_PT036H.grib2 2026-04-30 04:05 37K
20260430T00Z_MSC_GDPS_IcePellets-Accum3h_Sfc_LatLon0.15_PT036H.grib2 2026-04-30 04:05 21K
20260430T00Z_MSC_GDPS_IcePellets-Accum6h_Sfc_LatLon0.15_PT036H.grib2 2026-04-30 04:05 23K
20260430T00Z_MSC_GDPS_IcePellets-Accum_Sfc_LatLon0.15_PT036H.grib2 2026-04-30 04:05 46K
20260430T00Z_MSC_GDPS_KIndex_Sfc_LatLon0.15_PT036H.grib2 2026-04-30 04:05 6.5M
20260430T00Z_MSC_GDPS_LatentHeatNetFlux_Sfc_LatLon0.15_PT036H.grib2 2026-04-30 04:05 548K
20260430T00Z_MSC_GDPS_LiftedIndex-MU-VT_IsbL-0500_LatLon0.15_PT036H.grib2 2026-04-30 04:05 5.4M
20260430T00Z_MSC_GDPS_NetLongwaveRadiationFlux-Accum_Sfc_LatLon0.15_PT036H.grib2 2026-04-30 04:05 1.0M
20260430T00Z_MSC_GDPS_NetShortwaveRadiationFlux-Accum_Sfc_LatLon0.15_PT036H.grib2 2026-04-30 04:05 926K
20260430T00Z_MSC_GDPS_O3MixingRatio_Sfc_LatLon0.15_PT036H.grib2 2026-04-30 04:49 2.3M
20260430T00Z_MSC_GDPS_O3_EAtm_LatLon0.15_PT036H.grib2 2026-04-30 04:49 2.5M
20260430T00Z_MSC_GDPS_PlanetaryBoundaryLayerHeight_Sfc_LatLon0.15_PT036H.grib2 2026-04-30 04:05 2.5M
20260430T00Z_MSC_GDPS_Precip-Accum12h_Sfc_LatLon0.15_PT036H.grib2 2026-04-30 04:05 4.0M
20260430T00Z_MSC_GDPS_Precip-Accum1h_Sfc_LatLon0.15_PT036H.grib2 2026-04-30 04:05 3.3M
20260430T00Z_MSC_GDPS_Precip-Accum24h_Sfc_LatLon0.15_PT036H.grib2 2026-04-30 04:05 4.6M
20260430T00Z_MSC_GDPS_Precip-Accum3h_Sfc_LatLon0.15_PT036H.grib2 2026-04-30 04:05 3.5M
20260430T00Z_MSC_GDPS_Precip-Accum6h_Sfc_LatLon0.15_PT036H.grib2 2026-04-30 04:05 3.9M
20260430T00Z_MSC_GDPS_Precip-Accum_Sfc_LatLon0.15_PT036H.grib2 2026-04-30 04:05 4.7M
20260430T00Z_MSC_GDPS_PrecipRate_Sfc_LatLon0.15_PT036H.grib2 2026-04-30 04:05 3.0M
20260430T00Z_MSC_GDPS_PrecipType-Instant_Sfc_LatLon0.15_PT036H.grib2 2026-04-30 04:05 1.6M
20260430T00Z_MSC_GDPS_Pressure_MSL_LatLon0.15_PT036H.grib2 2026-04-30 04:05 833K
20260430T00Z_MSC_GDPS_Pressure_PVU-1.5_LatLon0.15_PT036H.grib2 2026-04-30 04:05 5.8M
20260430T00Z_MSC_GDPS_Pressure_PVU-1_LatLon0.15_PT036H.grib2 2026-04-30 04:05 6.0M
20260430T00Z_MSC_GDPS_Pressure_PVU-2_LatLon0.15_PT036H.grib2 2026-04-30 04:05 5.6M
20260430T00Z_MSC_GDPS_Pressure_Sfc_LatLon0.15_PT036H.grib2 2026-04-30 04:05 1.1M
20260430T00Z_MSC_GDPS_RadiativeTemp_Sfc_LatLon0.15_PT036H.grib2 2026-04-30 04:05 501K
20260430T00Z_MSC_GDPS_Rain-Accum12h_Sfc_LatLon0.15_PT036H.grib2 2026-04-30 04:05 2.7M
20260430T00Z_MSC_GDPS_Rain-Accum1h_Sfc_LatLon0.15_PT036H.grib2 2026-04-30 04:05 1.7M
20260430T00Z_MSC_GDPS_Rain-Accum24h_Sfc_LatLon0.15_PT036H.grib2 2026-04-30 04:05 3.2M
20260430T00Z_MSC_GDPS_Rain-Accum3h_Sfc_LatLon0.15_PT036H.grib2 2026-04-30 04:05 1.9M
20260430T00Z_MSC_GDPS_Rain-Accum6h_Sfc_LatLon0.15_PT036H.grib2 2026-04-30 04:05 2.5M
20260430T00Z_MSC_GDPS_Rain-Accum_Sfc_LatLon0.15_PT036H.grib2 2026-04-30 04:05 3.5M
20260430T00Z_MSC_GDPS_RelativeHumidity_AGL-2m_LatLon0.15_PT036H.grib2 2026-04-30 04:05 1.1M
20260430T00Z_MSC_GDPS_RelativeHumidity_IsbL-0010_LatLon0.15_PT036H.grib2 2026-04-30 04:05 199K
20260430T00Z_MSC_GDPS_RelativeHumidity_IsbL-0020_LatLon0.15_PT036H.grib2 2026-04-30 04:05 170K
20260430T00Z_MSC_GDPS_RelativeHumidity_IsbL-0030_LatLon0.15_PT036H.grib2 2026-04-30 04:05 270K
20260430T00Z_MSC_GDPS_RelativeHumidity_IsbL-0050_LatLon0.15_PT036H.grib2 2026-04-30 04:05 420K
20260430T00Z_MSC_GDPS_RelativeHumidity_IsbL-0100_LatLon0.15_PT036H.grib2 2026-04-30 04:05 512K
20260430T00Z_MSC_GDPS_RelativeHumidity_IsbL-0150_LatLon0.15_PT036H.grib2 2026-04-30 04:05 661K
20260430T00Z_MSC_GDPS_RelativeHumidity_IsbL-0175_LatLon0.15_PT036H.grib2 2026-04-30 04:05 577K
20260430T00Z_MSC_GDPS_RelativeHumidity_IsbL-0200_LatLon0.15_PT036H.grib2 2026-04-30 04:05 695K
20260430T00Z_MSC_GDPS_RelativeHumidity_IsbL-0225_LatLon0.15_PT036H.grib2 2026-04-30 04:05 790K
20260430T00Z_MSC_GDPS_RelativeHumidity_IsbL-0250_LatLon0.15_PT036H.grib2 2026-04-30 04:05 870K
20260430T00Z_MSC_GDPS_RelativeHumidity_IsbL-0275_LatLon0.15_PT036H.grib2 2026-04-30 04:05 891K
20260430T00Z_MSC_GDPS_RelativeHumidity_IsbL-0300_LatLon0.15_PT036H.grib2 2026-04-30 04:05 933K
20260430T00Z_MSC_GDPS_RelativeHumidity_IsbL-0350_LatLon0.15_PT036H.grib2 2026-04-30 04:05 950K
20260430T00Z_MSC_GDPS_RelativeHumidity_IsbL-0400_LatLon0.15_PT036H.grib2 2026-04-30 04:05 969K
20260430T00Z_MSC_GDPS_RelativeHumidity_IsbL-0450_LatLon0.15_PT036H.grib2 2026-04-30 04:05 1.0M
20260430T00Z_MSC_GDPS_RelativeHumidity_IsbL-0500_LatLon0.15_PT036H.grib2 2026-04-30 04:05 1.0M
20260430T00Z_MSC_GDPS_RelativeHumidity_IsbL-0550_LatLon0.15_PT036H.grib2 2026-04-30 04:05 1.1M
20260430T00Z_MSC_GDPS_RelativeHumidity_IsbL-0600_LatLon0.15_PT036H.grib2 2026-04-30 04:05 1.1M
20260430T00Z_MSC_GDPS_RelativeHumidity_IsbL-0650_LatLon0.15_PT036H.grib2 2026-04-30 04:05 1.1M
20260430T00Z_MSC_GDPS_RelativeHumidity_IsbL-0700_LatLon0.15_PT036H.grib2 2026-04-30 04:05 1.1M
20260430T00Z_MSC_GDPS_RelativeHumidity_IsbL-0750_LatLon0.15_PT036H.grib2 2026-04-30 04:05 1.2M
20260430T00Z_MSC_GDPS_RelativeHumidity_IsbL-0800_LatLon0.15_PT036H.grib2 2026-04-30 04:05 1.3M
20260430T00Z_MSC_GDPS_RelativeHumidity_IsbL-0850_LatLon0.15_PT036H.grib2 2026-04-30 04:05 1.3M
20260430T00Z_MSC_GDPS_RelativeHumidity_IsbL-0875_LatLon0.15_PT036H.grib2 2026-04-30 04:05 1.3M
20260430T00Z_MSC_GDPS_RelativeHumidity_IsbL-0900_LatLon0.15_PT036H.grib2 2026-04-30 04:05 1.2M
20260430T00Z_MSC_GDPS_RelativeHumidity_IsbL-0925_LatLon0.15_PT036H.grib2 2026-04-30 04:05 1.2M
20260430T00Z_MSC_GDPS_RelativeHumidity_IsbL-0950_LatLon0.15_PT036H.grib2 2026-04-30 04:05 1.2M
20260430T00Z_MSC_GDPS_RelativeHumidity_IsbL-0970_LatLon0.15_PT036H.grib2 2026-04-30 04:05 1.2M
20260430T00Z_MSC_GDPS_RelativeHumidity_IsbL-0985_LatLon0.15_PT036H.grib2 2026-04-30 04:05 1.2M
20260430T00Z_MSC_GDPS_RelativeHumidity_IsbL-1000_LatLon0.15_PT036H.grib2 2026-04-30 04:05 1.1M
20260430T00Z_MSC_GDPS_RelativeHumidity_IsbL-1015_LatLon0.15_PT036H.grib2 2026-04-30 04:05 1.1M
20260430T00Z_MSC_GDPS_RelativeVorticity_IsbL-0200_LatLon0.15_PT036H.grib2 2026-04-30 04:05 1.5M
20260430T00Z_MSC_GDPS_RelativeVorticity_IsbL-0250_LatLon0.15_PT036H.grib2 2026-04-30 04:05 1.6M
20260430T00Z_MSC_GDPS_RelativeVorticity_IsbL-0500_LatLon0.15_PT036H.grib2 2026-04-30 04:05 1.4M
20260430T00Z_MSC_GDPS_RelativeVorticity_IsbL-0700_LatLon0.15_PT036H.grib2 2026-04-30 04:05 1.6M
20260430T00Z_MSC_GDPS_RelativeVorticity_IsbL-0850_LatLon0.15_PT036H.grib2 2026-04-30 04:05 1.6M
20260430T00Z_MSC_GDPS_Runoff-Accum_Sfc_LatLon0.15_PT036H.grib2 2026-04-30 04:05 107K
20260430T00Z_MSC_GDPS_SensibleHeatNetFlux_Sfc_LatLon0.15_PT036H.grib2 2026-04-30 04:05 653K
20260430T00Z_MSC_GDPS_ShowalterIndex_IsbL-0500_LatLon0.15_PT036H.grib2 2026-04-30 04:05 6.2M
20260430T00Z_MSC_GDPS_Snow-Accum12h_Sfc_LatLon0.15_PT036H.grib2 2026-04-30 04:05 1.4M
20260430T00Z_MSC_GDPS_Snow-Accum1h_Sfc_LatLon0.15_PT036H.grib2 2026-04-30 04:05 1.0M
20260430T00Z_MSC_GDPS_Snow-Accum24h_Sfc_LatLon0.15_PT036H.grib2 2026-04-30 04:05 1.6M
20260430T00Z_MSC_GDPS_Snow-Accum3h_Sfc_LatLon0.15_PT036H.grib2 2026-04-30 04:05 1.1M
20260430T00Z_MSC_GDPS_Snow-Accum6h_Sfc_LatLon0.15_PT036H.grib2 2026-04-30 04:05 1.4M
20260430T00Z_MSC_GDPS_Snow-Accum_Sfc_LatLon0.15_PT036H.grib2 2026-04-30 04:05 1.9M
20260430T00Z_MSC_GDPS_SnowDensity_Sfc_LatLon0.15_PT036H.grib2 2026-04-30 04:05 262K
20260430T00Z_MSC_GDPS_SnowDepth_Sfc_LatLon0.15_PT036H.grib2 2026-04-30 04:05 1.7M
20260430T00Z_MSC_GDPS_SoilTemp_DBS-0to10cm_LatLon0.15_PT036H.grib2 2026-04-30 04:05 505K
20260430T00Z_MSC_GDPS_SoilTemp_Sfc_LatLon0.15_PT036H.grib2 2026-04-30 04:05 590K
20260430T00Z_MSC_GDPS_SoilVolumetricIceContent_Sfc_LatLon0.15_PT036H.grib2 2026-04-30 04:05 205K
20260430T00Z_MSC_GDPS_SoilVolumetricWaterContent_DBS-0to10cm_LatLon0.15_PT036H.grib2 2026-04-30 04:05 585K
20260430T00Z_MSC_GDPS_SoilVolumetricWaterContent_DBS-0to1cm_LatLon0.15_PT036H.grib2 2026-04-30 04:05 649K
20260430T00Z_MSC_GDPS_SpecificHumidity_AGL-120m_LatLon0.15_PT036H.grib2 2026-04-30 04:05 1.1M
20260430T00Z_MSC_GDPS_SpecificHumidity_AGL-2m_LatLon0.15_PT036H.grib2 2026-04-30 04:05 1.2M
20260430T00Z_MSC_GDPS_SpecificHumidity_AGL-40m_LatLon0.15_PT036H.grib2 2026-04-30 04:05 1.1M
20260430T00Z_MSC_GDPS_SpecificHumidity_AGL-80m_LatLon0.15_PT036H.grib2 2026-04-30 04:05 1.1M
20260430T00Z_MSC_GDPS_SpecificHumidity_IsbL-0001_LatLon0.15_PT036H.grib2 2026-04-30 04:05 1.3M
20260430T00Z_MSC_GDPS_SpecificHumidity_IsbL-0005_LatLon0.15_PT036H.grib2 2026-04-30 04:05 1.2M
20260430T00Z_MSC_GDPS_SpecificHumidity_IsbL-0010_LatLon0.15_PT036H.grib2 2026-04-30 04:05 1.3M
20260430T00Z_MSC_GDPS_SpecificHumidity_IsbL-0020_LatLon0.15_PT036H.grib2 2026-04-30 04:05 1.4M
20260430T00Z_MSC_GDPS_SpecificHumidity_IsbL-0030_LatLon0.15_PT036H.grib2 2026-04-30 04:05 1.4M
20260430T00Z_MSC_GDPS_SpecificHumidity_IsbL-0050_LatLon0.15_PT036H.grib2 2026-04-30 04:05 1.4M
20260430T00Z_MSC_GDPS_SpecificHumidity_IsbL-0100_LatLon0.15_PT036H.grib2 2026-04-30 04:05 1.4M
20260430T00Z_MSC_GDPS_SpecificHumidity_IsbL-0150_LatLon0.15_PT036H.grib2 2026-04-30 04:05 1.3M
20260430T00Z_MSC_GDPS_SpecificHumidity_IsbL-0175_LatLon0.15_PT036H.grib2 2026-04-30 04:05 1.2M
20260430T00Z_MSC_GDPS_SpecificHumidity_IsbL-0200_LatLon0.15_PT036H.grib2 2026-04-30 04:05 1.3M
20260430T00Z_MSC_GDPS_SpecificHumidity_IsbL-0225_LatLon0.15_PT036H.grib2 2026-04-30 04:05 1.3M
20260430T00Z_MSC_GDPS_SpecificHumidity_IsbL-0250_LatLon0.15_PT036H.grib2 2026-04-30 04:05 1.4M
20260430T00Z_MSC_GDPS_SpecificHumidity_IsbL-0275_LatLon0.15_PT036H.grib2 2026-04-30 04:05 1.3M
20260430T00Z_MSC_GDPS_SpecificHumidity_IsbL-0300_LatLon0.15_PT036H.grib2 2026-04-30 04:05 1.2M
20260430T00Z_MSC_GDPS_SpecificHumidity_IsbL-0350_LatLon0.15_PT036H.grib2 2026-04-30 04:05 1.2M
20260430T00Z_MSC_GDPS_SpecificHumidity_IsbL-0400_LatLon0.15_PT036H.grib2 2026-04-30 04:05 1.4M
20260430T00Z_MSC_GDPS_SpecificHumidity_IsbL-0450_LatLon0.15_PT036H.grib2 2026-04-30 04:05 1.6M
20260430T00Z_MSC_GDPS_SpecificHumidity_IsbL-0500_LatLon0.15_PT036H.grib2 2026-04-30 04:05 1.4M
20260430T00Z_MSC_GDPS_SpecificHumidity_IsbL-0550_LatLon0.15_PT036H.grib2 2026-04-30 04:05 1.6M
20260430T00Z_MSC_GDPS_SpecificHumidity_IsbL-0600_LatLon0.15_PT036H.grib2 2026-04-30 04:05 1.7M
20260430T00Z_MSC_GDPS_SpecificHumidity_IsbL-0650_LatLon0.15_PT036H.grib2 2026-04-30 04:05 1.5M
20260430T00Z_MSC_GDPS_SpecificHumidity_IsbL-0700_LatLon0.15_PT036H.grib2 2026-04-30 04:05 1.6M
20260430T00Z_MSC_GDPS_SpecificHumidity_IsbL-0750_LatLon0.15_PT036H.grib2 2026-04-30 04:05 1.7M
20260430T00Z_MSC_GDPS_SpecificHumidity_IsbL-0800_LatLon0.15_PT036H.grib2 2026-04-30 04:05 1.9M
20260430T00Z_MSC_GDPS_SpecificHumidity_IsbL-0850_LatLon0.15_PT036H.grib2 2026-04-30 04:05 1.9M
20260430T00Z_MSC_GDPS_SpecificHumidity_IsbL-0875_LatLon0.15_PT036H.grib2 2026-04-30 04:05 1.9M
20260430T00Z_MSC_GDPS_SpecificHumidity_IsbL-0900_LatLon0.15_PT036H.grib2 2026-04-30 04:05 1.6M
20260430T00Z_MSC_GDPS_SpecificHumidity_IsbL-0925_LatLon0.15_PT036H.grib2 2026-04-30 04:05 1.6M
20260430T00Z_MSC_GDPS_SpecificHumidity_IsbL-0950_LatLon0.15_PT036H.grib2 2026-04-30 04:05 1.6M
20260430T00Z_MSC_GDPS_SpecificHumidity_IsbL-0970_LatLon0.15_PT036H.grib2 2026-04-30 04:05 1.5M
20260430T00Z_MSC_GDPS_SpecificHumidity_IsbL-0985_LatLon0.15_PT036H.grib2 2026-04-30 04:05 1.5M
20260430T00Z_MSC_GDPS_SpecificHumidity_IsbL-1000_LatLon0.15_PT036H.grib2 2026-04-30 04:05 1.5M
20260430T00Z_MSC_GDPS_SpecificHumidity_IsbL-1015_LatLon0.15_PT036H.grib2 2026-04-30 04:05 1.5M
20260430T00Z_MSC_GDPS_SpecificHumidity_Sfc_LatLon0.15_PT036H.grib2 2026-04-30 04:05 676K
20260430T00Z_MSC_GDPS_Thickness_IsbL-0850to0700_LatLon0.15_PT036H.grib2 2026-04-30 04:05 467K
20260430T00Z_MSC_GDPS_Thickness_IsbL-1000to0500_LatLon0.15_PT036H.grib2 2026-04-30 04:05 368K
20260430T00Z_MSC_GDPS_Thickness_IsbL-1000to0850_LatLon0.15_PT036H.grib2 2026-04-30 04:05 488K
20260430T00Z_MSC_GDPS_TotalCloudCover_Sfc_LatLon0.15_PT036H.grib2 2026-04-30 04:05 835K
20260430T00Z_MSC_GDPS_TotalTotalsIndex_Sfc_LatLon0.15_PT036H.grib2 2026-04-30 04:05 6.2M
20260430T00Z_MSC_GDPS_UVIndex-ClearSky_Sfc_LatLon0.15_PT036H.grib2 2026-04-30 04:49 1.0M
20260430T00Z_MSC_GDPS_UVIndex_Sfc_LatLon0.15_PT036H.grib2 2026-04-30 04:49 1.5M
20260430T00Z_MSC_GDPS_UpwardLongwaveRadiationFlux_NTAtm_LatLon0.15_PT036H.grib2 2026-04-30 04:05 846K
20260430T00Z_MSC_GDPS_VerticalVelocity_IsbL-0200_LatLon0.15_PT036H.grib2 2026-04-30 04:05 1.1M
20260430T00Z_MSC_GDPS_VerticalVelocity_IsbL-0250_LatLon0.15_PT036H.grib2 2026-04-30 04:05 1.0M
20260430T00Z_MSC_GDPS_VerticalVelocity_IsbL-0500_LatLon0.15_PT036H.grib2 2026-04-30 04:05 1.0M
20260430T00Z_MSC_GDPS_VerticalVelocity_IsbL-0600_LatLon0.15_PT036H.grib2 2026-04-30 04:05 1.1M
20260430T00Z_MSC_GDPS_VerticalVelocity_IsbL-0700_LatLon0.15_PT036H.grib2 2026-04-30 04:05 1.2M
20260430T00Z_MSC_GDPS_VerticalVelocity_IsbL-0850_LatLon0.15_PT036H.grib2 2026-04-30 04:05 1.4M
20260430T00Z_MSC_GDPS_WindChill_Sfc_LatLon0.15_PT036H.grib2 2026-04-30 04:05 5.3M
20260430T00Z_MSC_GDPS_WindDir_AGL-10m_LatLon0.15_PT036H.grib2 2026-04-30 04:05 1.3M
20260430T00Z_MSC_GDPS_WindDir_AGL-120m_LatLon0.15_PT036H.grib2 2026-04-30 04:05 1.4M
20260430T00Z_MSC_GDPS_WindDir_AGL-40m_LatLon0.15_PT036H.grib2 2026-04-30 04:05 1.4M
20260430T00Z_MSC_GDPS_WindDir_AGL-80m_LatLon0.15_PT036H.grib2 2026-04-30 04:05 1.4M
20260430T00Z_MSC_GDPS_WindDir_IsbL-0001_LatLon0.15_PT036H.grib2 2026-04-30 04:05 661K
20260430T00Z_MSC_GDPS_WindDir_IsbL-0005_LatLon0.15_PT036H.grib2 2026-04-30 04:05 803K
20260430T00Z_MSC_GDPS_WindDir_IsbL-0010_LatLon0.15_PT036H.grib2 2026-04-30 04:05 860K
20260430T00Z_MSC_GDPS_WindDir_IsbL-0020_LatLon0.15_PT036H.grib2 2026-04-30 04:05 942K
20260430T00Z_MSC_GDPS_WindDir_IsbL-0030_LatLon0.15_PT036H.grib2 2026-04-30 04:05 926K
20260430T00Z_MSC_GDPS_WindDir_IsbL-0050_LatLon0.15_PT036H.grib2 2026-04-30 04:05 943K
20260430T00Z_MSC_GDPS_WindDir_IsbL-0100_LatLon0.15_PT036H.grib2 2026-04-30 04:05 1.0M
20260430T00Z_MSC_GDPS_WindDir_IsbL-0150_LatLon0.15_PT036H.grib2 2026-04-30 04:05 1.0M
20260430T00Z_MSC_GDPS_WindDir_IsbL-0175_LatLon0.15_PT036H.grib2 2026-04-30 04:05 1.1M
20260430T00Z_MSC_GDPS_WindDir_IsbL-0200_LatLon0.15_PT036H.grib2 2026-04-30 04:05 1.1M
20260430T00Z_MSC_GDPS_WindDir_IsbL-0225_LatLon0.15_PT036H.grib2 2026-04-30 04:05 1.1M
20260430T00Z_MSC_GDPS_WindDir_IsbL-0250_LatLon0.15_PT036H.grib2 2026-04-30 04:05 1.1M
20260430T00Z_MSC_GDPS_WindDir_IsbL-0275_LatLon0.15_PT036H.grib2 2026-04-30 04:05 1.2M
20260430T00Z_MSC_GDPS_WindDir_IsbL-0300_LatLon0.15_PT036H.grib2 2026-04-30 04:05 1.2M
20260430T00Z_MSC_GDPS_WindDir_IsbL-0350_LatLon0.15_PT036H.grib2 2026-04-30 04:05 1.2M
20260430T00Z_MSC_GDPS_WindDir_IsbL-0400_LatLon0.15_PT036H.grib2 2026-04-30 04:05 1.3M
20260430T00Z_MSC_GDPS_WindDir_IsbL-0450_LatLon0.15_PT036H.grib2 2026-04-30 04:05 1.3M
20260430T00Z_MSC_GDPS_WindDir_IsbL-0500_LatLon0.15_PT036H.grib2 2026-04-30 04:05 1.3M
20260430T00Z_MSC_GDPS_WindDir_IsbL-0550_LatLon0.15_PT036H.grib2 2026-04-30 04:05 1.4M
20260430T00Z_MSC_GDPS_WindDir_IsbL-0600_LatLon0.15_PT036H.grib2 2026-04-30 04:05 1.4M
20260430T00Z_MSC_GDPS_WindDir_IsbL-0650_LatLon0.15_PT036H.grib2 2026-04-30 04:05 1.5M
20260430T00Z_MSC_GDPS_WindDir_IsbL-0700_LatLon0.15_PT036H.grib2 2026-04-30 04:05 1.6M
20260430T00Z_MSC_GDPS_WindDir_IsbL-0750_LatLon0.15_PT036H.grib2 2026-04-30 04:05 1.7M
20260430T00Z_MSC_GDPS_WindDir_IsbL-0800_LatLon0.15_PT036H.grib2 2026-04-30 04:05 1.8M
20260430T00Z_MSC_GDPS_WindDir_IsbL-0850_LatLon0.15_PT036H.grib2 2026-04-30 04:05 1.9M
20260430T00Z_MSC_GDPS_WindDir_IsbL-0875_LatLon0.15_PT036H.grib2 2026-04-30 04:05 2.0M
20260430T00Z_MSC_GDPS_WindDir_IsbL-0900_LatLon0.15_PT036H.grib2 2026-04-30 04:05 2.0M
20260430T00Z_MSC_GDPS_WindDir_IsbL-0925_LatLon0.15_PT036H.grib2 2026-04-30 04:05 2.0M
20260430T00Z_MSC_GDPS_WindDir_IsbL-0950_LatLon0.15_PT036H.grib2 2026-04-30 04:05 2.0M
20260430T00Z_MSC_GDPS_WindDir_IsbL-0970_LatLon0.15_PT036H.grib2 2026-04-30 04:05 2.0M
20260430T00Z_MSC_GDPS_WindDir_IsbL-0985_LatLon0.15_PT036H.grib2 2026-04-30 04:05 2.0M
20260430T00Z_MSC_GDPS_WindDir_IsbL-1000_LatLon0.15_PT036H.grib2 2026-04-30 04:05 2.1M
20260430T00Z_MSC_GDPS_WindDir_IsbL-1015_LatLon0.15_PT036H.grib2 2026-04-30 04:05 2.0M
20260430T00Z_MSC_GDPS_WindGust-Max_AGL-10m_LatLon0.15_PT036H.grib2 2026-04-30 04:05 2.2M
20260430T00Z_MSC_GDPS_WindGust-Min_AGL-10m_LatLon0.15_PT036H.grib2 2026-04-30 04:05 2.1M
20260430T00Z_MSC_GDPS_WindGust_AGL-10m_LatLon0.15_PT036H.grib2 2026-04-30 04:05 2.1M
20260430T00Z_MSC_GDPS_WindSpeed_AGL-10m_LatLon0.15_PT036H.grib2 2026-04-30 04:05 1.1M
20260430T00Z_MSC_GDPS_WindSpeed_AGL-120m_LatLon0.15_PT036H.grib2 2026-04-30 04:05 1.2M
20260430T00Z_MSC_GDPS_WindSpeed_AGL-40m_LatLon0.15_PT036H.grib2 2026-04-30 04:05 1.2M
20260430T00Z_MSC_GDPS_WindSpeed_AGL-80m_LatLon0.15_PT036H.grib2 2026-04-30 04:05 1.2M
20260430T00Z_MSC_GDPS_WindSpeed_IsbL-0001_LatLon0.15_PT036H.grib2 2026-04-30 04:05 643K
20260430T00Z_MSC_GDPS_WindSpeed_IsbL-0005_LatLon0.15_PT036H.grib2 2026-04-30 04:05 693K
20260430T00Z_MSC_GDPS_WindSpeed_IsbL-0010_LatLon0.15_PT036H.grib2 2026-04-30 04:05 629K
20260430T00Z_MSC_GDPS_WindSpeed_IsbL-0020_LatLon0.15_PT036H.grib2 2026-04-30 04:05 862K
20260430T00Z_MSC_GDPS_WindSpeed_IsbL-0030_LatLon0.15_PT036H.grib2 2026-04-30 04:05 866K
20260430T00Z_MSC_GDPS_WindSpeed_IsbL-0050_LatLon0.15_PT036H.grib2 2026-04-30 04:05 907K
20260430T00Z_MSC_GDPS_WindSpeed_IsbL-0100_LatLon0.15_PT036H.grib2 2026-04-30 04:05 1.1M
20260430T00Z_MSC_GDPS_WindSpeed_IsbL-0150_LatLon0.15_PT036H.grib2 2026-04-30 04:05 1.0M
20260430T00Z_MSC_GDPS_WindSpeed_IsbL-0175_LatLon0.15_PT036H.grib2 2026-04-30 04:05 1.0M
20260430T00Z_MSC_GDPS_WindSpeed_IsbL-0200_LatLon0.15_PT036H.grib2 2026-04-30 04:05 1.1M
20260430T00Z_MSC_GDPS_WindSpeed_IsbL-0225_LatLon0.15_PT036H.grib2 2026-04-30 04:05 1.1M
20260430T00Z_MSC_GDPS_WindSpeed_IsbL-0250_LatLon0.15_PT036H.grib2 2026-04-30 04:05 1.1M
20260430T00Z_MSC_GDPS_WindSpeed_IsbL-0275_LatLon0.15_PT036H.grib2 2026-04-30 04:05 1.1M
20260430T00Z_MSC_GDPS_WindSpeed_IsbL-0300_LatLon0.15_PT036H.grib2 2026-04-30 04:05 1.1M
20260430T00Z_MSC_GDPS_WindSpeed_IsbL-0350_LatLon0.15_PT036H.grib2 2026-04-30 04:05 1.1M
20260430T00Z_MSC_GDPS_WindSpeed_IsbL-0400_LatLon0.15_PT036H.grib2 2026-04-30 04:05 1.1M
20260430T00Z_MSC_GDPS_WindSpeed_IsbL-0450_LatLon0.15_PT036H.grib2 2026-04-30 04:05 1.1M
20260430T00Z_MSC_GDPS_WindSpeed_IsbL-0500_LatLon0.15_PT036H.grib2 2026-04-30 04:05 1.1M
20260430T00Z_MSC_GDPS_WindSpeed_IsbL-0550_LatLon0.15_PT036H.grib2 2026-04-30 04:05 1.1M
20260430T00Z_MSC_GDPS_WindSpeed_IsbL-0600_LatLon0.15_PT036H.grib2 2026-04-30 04:05 1.4M
20260430T00Z_MSC_GDPS_WindSpeed_IsbL-0650_LatLon0.15_PT036H.grib2 2026-04-30 04:05 1.4M
20260430T00Z_MSC_GDPS_WindSpeed_IsbL-0700_LatLon0.15_PT036H.grib2 2026-04-30 04:05 1.5M
20260430T00Z_MSC_GDPS_WindSpeed_IsbL-0750_LatLon0.15_PT036H.grib2 2026-04-30 04:05 1.6M
20260430T00Z_MSC_GDPS_WindSpeed_IsbL-0800_LatLon0.15_PT036H.grib2 2026-04-30 04:05 1.7M
20260430T00Z_MSC_GDPS_WindSpeed_IsbL-0850_LatLon0.15_PT036H.grib2 2026-04-30 04:05 1.7M
20260430T00Z_MSC_GDPS_WindSpeed_IsbL-0875_LatLon0.15_PT036H.grib2 2026-04-30 04:05 1.8M
20260430T00Z_MSC_GDPS_WindSpeed_IsbL-0900_LatLon0.15_PT036H.grib2 2026-04-30 04:05 1.8M
20260430T00Z_MSC_GDPS_WindSpeed_IsbL-0925_LatLon0.15_PT036H.grib2 2026-04-30 04:05 1.8M
20260430T00Z_MSC_GDPS_WindSpeed_IsbL-0950_LatLon0.15_PT036H.grib2 2026-04-30 04:05 1.9M
20260430T00Z_MSC_GDPS_WindSpeed_IsbL-0970_LatLon0.15_PT036H.grib2 2026-04-30 04:05 1.9M
20260430T00Z_MSC_GDPS_WindSpeed_IsbL-0985_LatLon0.15_PT036H.grib2 2026-04-30 04:05 1.9M
20260430T00Z_MSC_GDPS_WindSpeed_IsbL-1000_LatLon0.15_PT036H.grib2 2026-04-30 04:05 1.9M
20260430T00Z_MSC_GDPS_WindSpeed_IsbL-1015_LatLon0.15_PT036H.grib2 2026-04-30 04:05 1.8M
20260430T00Z_MSC_GDPS_WindU_AGL-10m_LatLon0.15_PT036H.grib2 2026-04-30 04:05 1.3M
20260430T00Z_MSC_GDPS_WindU_AGL-120m_LatLon0.15_PT036H.grib2 2026-04-30 04:05 1.0M
20260430T00Z_MSC_GDPS_WindU_AGL-40m_LatLon0.15_PT036H.grib2 2026-04-30 04:05 973K
20260430T00Z_MSC_GDPS_WindU_AGL-80m_LatLon0.15_PT036H.grib2 2026-04-30 04:05 1.0M
20260430T00Z_MSC_GDPS_WindU_IsbL-0001_LatLon0.15_PT036H.grib2 2026-04-30 04:05 500K
20260430T00Z_MSC_GDPS_WindU_IsbL-0005_LatLon0.15_PT036H.grib2 2026-04-30 04:05 692K
20260430T00Z_MSC_GDPS_WindU_IsbL-0010_LatLon0.15_PT036H.grib2 2026-04-30 04:05 704K
20260430T00Z_MSC_GDPS_WindU_IsbL-0020_LatLon0.15_PT036H.grib2 2026-04-30 04:05 736K
20260430T00Z_MSC_GDPS_WindU_IsbL-0030_LatLon0.15_PT036H.grib2 2026-04-30 04:05 741K
20260430T00Z_MSC_GDPS_WindU_IsbL-0050_LatLon0.15_PT036H.grib2 2026-04-30 04:05 770K
20260430T00Z_MSC_GDPS_WindU_IsbL-0100_LatLon0.15_PT036H.grib2 2026-04-30 04:05 923K
20260430T00Z_MSC_GDPS_WindU_IsbL-0150_LatLon0.15_PT036H.grib2 2026-04-30 04:05 1.0M
20260430T00Z_MSC_GDPS_WindU_IsbL-0175_LatLon0.15_PT036H.grib2 2026-04-30 04:05 1.0M
20260430T00Z_MSC_GDPS_WindU_IsbL-0200_LatLon0.15_PT036H.grib2 2026-04-30 04:05 1.1M
20260430T00Z_MSC_GDPS_WindU_IsbL-0225_LatLon0.15_PT036H.grib2 2026-04-30 04:05 856K
20260430T00Z_MSC_GDPS_WindU_IsbL-0250_LatLon0.15_PT036H.grib2 2026-04-30 04:05 858K
20260430T00Z_MSC_GDPS_WindU_IsbL-0275_LatLon0.15_PT036H.grib2 2026-04-30 04:05 884K
20260430T00Z_MSC_GDPS_WindU_IsbL-0300_LatLon0.15_PT036H.grib2 2026-04-30 04:05 874K
20260430T00Z_MSC_GDPS_WindU_IsbL-0350_LatLon0.15_PT036H.grib2 2026-04-30 04:05 884K
20260430T00Z_MSC_GDPS_WindU_IsbL-0400_LatLon0.15_PT036H.grib2 2026-04-30 04:05 1.1M
20260430T00Z_MSC_GDPS_WindU_IsbL-0450_LatLon0.15_PT036H.grib2 2026-04-30 04:05 1.1M
20260430T00Z_MSC_GDPS_WindU_IsbL-0500_LatLon0.15_PT036H.grib2 2026-04-30 04:05 1.1M
20260430T00Z_MSC_GDPS_WindU_IsbL-0550_LatLon0.15_PT036H.grib2 2026-04-30 04:05 1.1M
20260430T00Z_MSC_GDPS_WindU_IsbL-0600_LatLon0.15_PT036H.grib2 2026-04-30 04:05 1.1M
20260430T00Z_MSC_GDPS_WindU_IsbL-0650_LatLon0.15_PT036H.grib2 2026-04-30 04:05 1.2M
20260430T00Z_MSC_GDPS_WindU_IsbL-0700_LatLon0.15_PT036H.grib2 2026-04-30 04:05 1.2M
20260430T00Z_MSC_GDPS_WindU_IsbL-0750_LatLon0.15_PT036H.grib2 2026-04-30 04:05 1.3M
20260430T00Z_MSC_GDPS_WindU_IsbL-0800_LatLon0.15_PT036H.grib2 2026-04-30 04:05 1.4M
20260430T00Z_MSC_GDPS_WindU_IsbL-0850_LatLon0.15_PT036H.grib2 2026-04-30 04:05 1.4M
20260430T00Z_MSC_GDPS_WindU_IsbL-0875_LatLon0.15_PT036H.grib2 2026-04-30 04:05 1.5M
20260430T00Z_MSC_GDPS_WindU_IsbL-0900_LatLon0.15_PT036H.grib2 2026-04-30 04:05 1.5M
20260430T00Z_MSC_GDPS_WindU_IsbL-0925_LatLon0.15_PT036H.grib2 2026-04-30 04:05 1.5M
20260430T00Z_MSC_GDPS_WindU_IsbL-0950_LatLon0.15_PT036H.grib2 2026-04-30 04:05 1.4M
20260430T00Z_MSC_GDPS_WindU_IsbL-0970_LatLon0.15_PT036H.grib2 2026-04-30 04:05 1.4M
20260430T00Z_MSC_GDPS_WindU_IsbL-0985_LatLon0.15_PT036H.grib2 2026-04-30 04:05 1.4M
20260430T00Z_MSC_GDPS_WindU_IsbL-1000_LatLon0.15_PT036H.grib2 2026-04-30 04:05 1.4M
20260430T00Z_MSC_GDPS_WindU_IsbL-1015_LatLon0.15_PT036H.grib2 2026-04-30 04:05 1.4M
20260430T00Z_MSC_GDPS_WindV_AGL-10m_LatLon0.15_PT036H.grib2 2026-04-30 04:05 1.3M
20260430T00Z_MSC_GDPS_WindV_AGL-120m_LatLon0.15_PT036H.grib2 2026-04-30 04:05 1.0M
20260430T00Z_MSC_GDPS_WindV_AGL-40m_LatLon0.15_PT036H.grib2 2026-04-30 04:05 968K
20260430T00Z_MSC_GDPS_WindV_AGL-80m_LatLon0.15_PT036H.grib2 2026-04-30 04:05 1.0M
20260430T00Z_MSC_GDPS_WindV_IsbL-0001_LatLon0.15_PT036H.grib2 2026-04-30 04:05 710K
20260430T00Z_MSC_GDPS_WindV_IsbL-0005_LatLon0.15_PT036H.grib2 2026-04-30 04:05 765K
20260430T00Z_MSC_GDPS_WindV_IsbL-0010_LatLon0.15_PT036H.grib2 2026-04-30 04:05 800K
20260430T00Z_MSC_GDPS_WindV_IsbL-0020_LatLon0.15_PT036H.grib2 2026-04-30 04:05 855K
20260430T00Z_MSC_GDPS_WindV_IsbL-0030_LatLon0.15_PT036H.grib2 2026-04-30 04:05 856K
20260430T00Z_MSC_GDPS_WindV_IsbL-0050_LatLon0.15_PT036H.grib2 2026-04-30 04:05 1.0M
20260430T00Z_MSC_GDPS_WindV_IsbL-0100_LatLon0.15_PT036H.grib2 2026-04-30 04:05 1.1M
20260430T00Z_MSC_GDPS_WindV_IsbL-0150_LatLon0.15_PT036H.grib2 2026-04-30 04:05 934K
20260430T00Z_MSC_GDPS_WindV_IsbL-0175_LatLon0.15_PT036H.grib2 2026-04-30 04:05 1.0M
20260430T00Z_MSC_GDPS_WindV_IsbL-0200_LatLon0.15_PT036H.grib2 2026-04-30 04:05 847K
20260430T00Z_MSC_GDPS_WindV_IsbL-0225_LatLon0.15_PT036H.grib2 2026-04-30 04:05 853K
20260430T00Z_MSC_GDPS_WindV_IsbL-0250_LatLon0.15_PT036H.grib2 2026-04-30 04:05 854K
20260430T00Z_MSC_GDPS_WindV_IsbL-0275_LatLon0.15_PT036H.grib2 2026-04-30 04:05 880K
20260430T00Z_MSC_GDPS_WindV_IsbL-0300_LatLon0.15_PT036H.grib2 2026-04-30 04:05 866K
20260430T00Z_MSC_GDPS_WindV_IsbL-0350_LatLon0.15_PT036H.grib2 2026-04-30 04:05 876K
20260430T00Z_MSC_GDPS_WindV_IsbL-0400_LatLon0.15_PT036H.grib2 2026-04-30 04:05 879K
20260430T00Z_MSC_GDPS_WindV_IsbL-0450_LatLon0.15_PT036H.grib2 2026-04-30 04:05 1.1M
20260430T00Z_MSC_GDPS_WindV_IsbL-0500_LatLon0.15_PT036H.grib2 2026-04-30 04:05 1.1M
20260430T00Z_MSC_GDPS_WindV_IsbL-0550_LatLon0.15_PT036H.grib2 2026-04-30 04:05 1.1M
20260430T00Z_MSC_GDPS_WindV_IsbL-0600_LatLon0.15_PT036H.grib2 2026-04-30 04:05 1.1M
20260430T00Z_MSC_GDPS_WindV_IsbL-0650_LatLon0.15_PT036H.grib2 2026-04-30 04:05 1.2M
20260430T00Z_MSC_GDPS_WindV_IsbL-0700_LatLon0.15_PT036H.grib2 2026-04-30 04:05 1.2M
20260430T00Z_MSC_GDPS_WindV_IsbL-0750_LatLon0.15_PT036H.grib2 2026-04-30 04:05 1.3M
20260430T00Z_MSC_GDPS_WindV_IsbL-0800_LatLon0.15_PT036H.grib2 2026-04-30 04:05 1.3M
20260430T00Z_MSC_GDPS_WindV_IsbL-0850_LatLon0.15_PT036H.grib2 2026-04-30 04:05 1.4M
20260430T00Z_MSC_GDPS_WindV_IsbL-0875_LatLon0.15_PT036H.grib2 2026-04-30 04:05 1.4M
20260430T00Z_MSC_GDPS_WindV_IsbL-0900_LatLon0.15_PT036H.grib2 2026-04-30 04:05 1.5M
20260430T00Z_MSC_GDPS_WindV_IsbL-0925_LatLon0.15_PT036H.grib2 2026-04-30 04:05 1.4M
20260430T00Z_MSC_GDPS_WindV_IsbL-0950_LatLon0.15_PT036H.grib2 2026-04-30 04:05 1.4M
20260430T00Z_MSC_GDPS_WindV_IsbL-0970_LatLon0.15_PT036H.grib2 2026-04-30 04:05 1.4M
20260430T00Z_MSC_GDPS_WindV_IsbL-0985_LatLon0.15_PT036H.grib2 2026-04-30 04:05 1.4M
20260430T00Z_MSC_GDPS_WindV_IsbL-1000_LatLon0.15_PT036H.grib2 2026-04-30 04:05 1.4M
20260430T00Z_MSC_GDPS_WindV_IsbL-1015_LatLon0.15_PT036H.grib2 2026-04-30 04:05 1.3M